Printer-friendly version

IAU Minor Planet Center

Minor Planet Center

MPEC 2003-W19 : 2003 WL7

The following Minor Planet Electronic Circular may be linked-to from your own Web pages, but must not otherwise be redistributed electronically.


Read MPEC 2003-W18 Read MPEC 2003-W20


M.P.E.C. 2003-W19                                Issued 2003 Nov. 20, 03:15 UT

     The Minor Planet Electronic Circulars contain information on unusual
         minor planets and routine data on comets.  They are published
   on behalf of Commission 20 of the International Astronomical Union by the
          Minor Planet Center, Smithsonian Astrophysical Observatory,
                          Cambridge, MA 02138, U.S.A.

         Supported in part by the Steven and Michele Kirsch Foundation
             Prepared using the Tamkin Foundation Computer Network

                              MPC@CFA.HARVARD.EDU
          URL http://cfa-www.harvard.edu/iau/mpc.html  ISSN 1523-6714

                                   2003 WL7

Observations:
     K03W07L  C2003 10 18.29092 01 27 18.45 +13 41 28.0          20.9 V      691
     K03W07L  C2003 10 18.31901 01 27 18.12 +13 41 26.7          20.9 V      691
     K03W07L  C2003 10 18.34714 01 27 17.79 +13 41 24.8          21.4 V      691
     K03W07L* C2003 11 16.14167 01 22 13.41 +13 15 24.0          21.3 V      291
     K03W07L  C2003 11 16.18066 01 22 13.04 +13 15 21.8          21.3 V      291
     K03W07L  C2003 11 16.21841 01 22 12.69 +13 15 20.0          21.6 V      291
     K03W07L  C2003 11 17.20417 01 22 03.79 +13 14 30.8          21.0 R      673
     K03W07L  C2003 11 17.27361 01 22 03.16 +13 14 27.0                      673
     K03W07L  C2003 11 17.28125 01 22 03.08 +13 14 26.8                      673
     K03W07L  C2003 11 17.29039 01 22 02.99 +13 14 26.5                      673
     K03W07L  C2003 11 18.13681 01 21 55.44 +13 13 44.1          21.0 R      673
     K03W07L  C2003 11 18.14063 01 21 55.42 +13 13 43.9                      673
     K03W07L  C2003 11 18.14152 01 21 55.50 +13 13 43.6          21.0 V      291
     K03W07L  C2003 11 18.14884 01 21 55.37 +13 13 43.6                      673
     K03W07L  C2003 11 18.15417 01 21 55.34 +13 13 43.4                      673
     K03W07L  C2003 11 18.15821 01 21 55.25 +13 13 43.8          20.6 R      854
     K03W07L  C2003 11 18.16053 01 21 55.29 +13 13 43.2                      673
     K03W07L  C2003 11 18.16667 01 21 55.24 +13 13 42.3                      673
     K03W07L  C2003 11 18.16992 01 21 55.19 +13 13 43.7          21.0 V      291
     K03W07L  C2003 11 18.19836 01 21 54.93 +13 13 40.7          21.1 V      291
     K03W07L  C2003 11 18.21448 01 21 54.80 +13 13 40.5          20.8 R      926
     K03W07L  C2003 11 18.23596 01 21 54.60 +13 13 38.8          20.9 R      926
     K03W07L  C2003 11 18.26244 01 21 54.35 +13 13 37.8          21.0 R      926
     K03W07L  C2003 11 19.20103 01 21 46.25 +13 12 51.1          21.0 R      926
     K03W07L  C2003 11 19.22154 01 21 45.96 +13 12 50.8          21.3 R      926
     K03W07L  C2003 11 19.24372 01 21 45.78 +13 12 49.6          21.2 R      926
     K03W07L  C2003 11 19.30730 01 21 45.23 +13 12 46.3          20.1 R      568
     K03W07L  C2003 11 19.31936 01 21 45.12 +13 12 45.7          20.1 R      568
     K03W07L  C2003 11 19.38052 01 21 44.57 +13 12 42.8          20.1 R      568

Observer details:
291 LPL/Spacewatch II.  Observers A. S. Descour, A. E. Gleason.  1.8-m f/2.7
    reflector + CCD.
568 Mauna Kea.  Observers J. Pittichova, J. Bedient.  University of Hawaii
    2.2-m reflector + CCD.
673 Table Mountain Observatory, Wrightwood.  Observer J. Young.  0.6-m
    reflector + CCD.
691 Steward Observatory, Kitt Peak.  Observers A. F. Tubbiolo, J. A. Larsen,
    A. E. Gleason.  0.9-m f/3 reflector + CCD.
854 Sabino Canyon Observatory, Tucson.  Observer J. E. McGaha.  0.356-m f/10.0
    Schmidt-Cassegrain + CCD.
926 Tenagra II Observatory.  Observers P. R. Holvorcem, M. Schwartz.  0.81-m
    f/7 Ritchey-Chretien + CCD.

Orbital elements:
2003 WL7
Epoch 2003 Oct. 28.0 TT = JDT 2452940.5                 MPC
M 332.48915              (2000.0)            P               Q
n   0.00937413     Peri.   80.55141     +0.08950533     -0.99587907
a  22.2765965      Node     4.39331     +0.82245652     +0.06562534
e   0.3758384      Incl.   11.00080     +0.56174199     +0.06259545
P 105              H    9.0           G   0.15
From 29 observations 2003 Oct. 18-Nov. 19.

Ephemeris:
2003 WL7                 a,e,i = 22.28, 0.38, 11                 q = 13.904
Date    TT    R. A. (2000) Decl.     Delta      r     Elong.  Phase     V
2003 11 17    01 22.09   +13 14.7   15.159   16.019   149.5     1.8    21.1
2003 11 27    01 20.73   +13 06.8   15.247   16.006   139.1     2.3    21.2
2003 12 07    01 19.67   +13 00.4   15.358   15.993   128.7     2.8    21.2
2003 12 17    01 18.97   +12 55.7   15.489   15.981   118.4     3.1    21.3
2003 12 27    01 18.67   +12 53.1   15.634   15.968   108.2     3.4    21.3
2004 01 06    01 18.77   +12 52.8   15.788   15.956    98.1     3.5    21.3
2004 01 16    01 19.29   +12 54.8   15.946   15.943    88.0     3.5    21.4
2004 01 26    01 20.21   +12 59.3   16.104   15.931    78.1     3.5    21.4
2004 02 05    01 21.51   +13 06.1   16.256   15.918    68.3     3.3    21.4
2004 02 15    01 23.16   +13 15.1   16.397   15.906    58.7     3.0    21.4
2004 02 25    01 25.12   +13 26.2   16.523   15.893    49.1     2.7    21.4
2004 03 06    01 27.34   +13 39.0   16.631   15.881    39.7     2.3    21.4
2004 03 16    01 29.79   +13 53.4   16.718   15.868    30.5     1.8    21.3

Brian G. Marsden             (C) Copyright 2003 MPC           M.P.E.C. 2003-W19

Read MPEC 2003-W18 Read MPEC 2003-W20


Our Web policy. Index to the CBAT/MPC/ICQ pages.


Valid HTML 4.01!